When you browse on this site, cookies collect data to enhance your experience and personalize the content and advertising you see.
Visit our Privacy Policy to learn more. By continuing to use the site, you agree to this use of cookies and data.
  • Em Portugal
  • Lista de países
  • Para 7 dias
  • Temperatura da água
  • Mapa do tempo
  • Widgets de tempo
  • user-avatar
    Iniciar Sessão

    Previsão horária em Stepanakert

    Hoje, 1 Junho, Segunda-feira

    Tempo Temperatura Precipitação Vento Pressão Humidade
    00:00 +18°C° 0 mm 1 m/s 691 mmHg 79%
    01:00 +18°C° 0 mm 1 m/s 691 mmHg 80%
    02:00 +18°C° 0 mm 1 m/s 691 mmHg 81%
    03:00 +16°C° 0 mm 1 m/s 691 mmHg 82%
    04:00 +18°C° 0 mm 1 m/s 691 mmHg 80%
    05:00 +19°C° 0 mm 1 m/s 691 mmHg 78%
    06:00 +19°C° 0 mm 1 m/s 691 mmHg 76%
    07:00 +21°C° 0 mm 1 m/s 691 mmHg 72%
    08:00 +22°C° 0 mm 1 m/s 692 mmHg 67%
    09:00 +24°C° 0 mm 2 m/s 692 mmHg 63%
    10:00 +24°C° 0 mm 2 m/s 691 mmHg 61%
    11:00 +25°C° 0 mm 2 m/s 691 mmHg 59%
    12:00 +26°C° 0 mm 2 m/s 691 mmHg 56%
    13:00 +26°C° 0 mm 2 m/s 691 mmHg 56%
    14:00 +27°C° 0 mm 2 m/s 690 mmHg 55%
    15:00 +27°C° 0 mm 2 m/s 690 mmHg 54%
    16:00 +27°C° 0 mm 2 m/s 689 mmHg 58%
    17:00 +26°C° 0 mm 1 m/s 689 mmHg 62%
    18:00 +26°C° 0 mm 1 m/s 689 mmHg 66%
    19:00 +24°C° 0 mm 1 m/s 689 mmHg 69%
    20:00 +23°C° 0 mm 1 m/s 689 mmHg 72%
    21:00 +21°C° 0 mm 1 m/s 689 mmHg 75%
    22:00 +21°C° 0 mm 1 m/s 689 mmHg 72%
    23:00 +19°C° 0 mm 2 m/s 689 mmHg 70%

    Amanhã, 2 Junho, Terça-feira

    Tempo Temperatura Precipitação Vento Pressão Humidade
    00:00 +19°C° 0 mm 2 m/s 688 mmHg 67%
    01:00 +19°C° 0 mm 2 m/s 688 mmHg 65%
    02:00 +19°C° 0 mm 2 m/s 688 mmHg 62%
    03:00 +19°C° 0 mm 2 m/s 688 mmHg 60%
    04:00 +19°C° 0 mm 2 m/s 688 mmHg 59%
    05:00 +20°C° 0 mm 2 m/s 688 mmHg 58%
    06:00 +22°C° 0 mm 1 m/s 689 mmHg 58%
    07:00 +24°C° 0 mm 1 m/s 689 mmHg 53%
    08:00 +26°C° 0 mm 1 m/s 689 mmHg 48%
    09:00 +28°C° 0 mm 1 m/s 689 mmHg 43%
    10:00 +29°C° 0 mm 2 m/s 689 mmHg 42%
    11:00 +30°C° 0 mm 2 m/s 689 mmHg 40%
    12:00 +31°C° 0 mm 3 m/s 689 mmHg 38%
    13:00 +31°C° 0 mm 3 m/s 688 mmHg 39%
    14:00 +31°C° 0 mm 3 m/s 688 mmHg 40%
    15:00 +31°C° 0 mm 3 m/s 687 mmHg 41%
    16:00 +30°C° 0.3 mm 3 m/s 687 mmHg 48%
    17:00 +28°C° 0.3 mm 3 m/s 687 mmHg 56%
    18:00 +26°C° 0.3 mm 3 m/s 687 mmHg 63%
    19:00 +25°C° 0.2 mm 2 m/s 687 mmHg 66%
    20:00 +23°C° 0.2 mm 2 m/s 687 mmHg 69%
    21:00 +20°C° 0.2 mm 2 m/s 687 mmHg 72%
    22:00 +20°C° 0 mm 2 m/s 686 mmHg 72%
    23:00 +20°C° 0 mm 2 m/s 686 mmHg 72%

    Depois de amanhã, 3 Junho, Quarta-feira

    Tempo Temperatura Precipitação Vento Pressão Humidade
    00:00 +19°C° 0 mm 3 m/s 686 mmHg 73%
    01:00 +19°C° 0 mm 2 m/s 686 mmHg 72%
    02:00 +19°C° 0 mm 2 m/s 686 mmHg 70%
    03:00 +19°C° 0 mm 2 m/s 686 mmHg 69%
    04:00 +19°C° 0 mm 2 m/s 686 mmHg 68%
    05:00 +20°C° 0 mm 2 m/s 687 mmHg 66%
    06:00 +21°C° 0 mm 2 m/s 687 mmHg 65%
    07:00 +24°C° 0 mm 2 m/s 687 mmHg 59%
    08:00 +26°C° 0 mm 2 m/s 687 mmHg 52%
    09:00 +28°C° 0 mm 2 m/s 688 mmHg 46%
    10:00 +29°C° 0 mm 2 m/s 688 mmHg 42%
    11:00 +30°C° 0 mm 3 m/s 688 mmHg 38%
    12:00 +31°C° 0 mm 3 m/s 688 mmHg 34%
    13:00 +31°C° 0 mm 3 m/s 688 mmHg 35%
    14:00 +31°C° 0 mm 3 m/s 687 mmHg 36%
    15:00 +31°C° 0 mm 3 m/s 687 mmHg 37%
    16:00 +30°C° 0.1 mm 2 m/s 687 mmHg 44%
    17:00 +28°C° 0.1 mm 2 m/s 687 mmHg 50%
    18:00 +26°C° 0.1 mm 2 m/s 687 mmHg 57%
    19:00 +25°C° 0 mm 2 m/s 687 mmHg 55%
    20:00 +24°C° 0 mm 2 m/s 687 mmHg 53%
    21:00 +21°C° 0 mm 3 m/s 687 mmHg 52%
    22:00 +21°C° 0 mm 2 m/s 688 mmHg 51%
    23:00 +21°C° 0 mm 2 m/s 688 mmHg 50%

    4 Junho, Quinta-feira

    Tempo Temperatura Precipitação Vento Pressão Humidade
    00:00 +21°C° 0 mm 2 m/s 688 mmHg 49%
    01:00 +20°C° 0 mm 2 m/s 688 mmHg 50%
    02:00 +19°C° 0 mm 2 m/s 689 mmHg 51%
    03:00 +19°C° 0 mm 2 m/s 689 mmHg 52%
    04:00 +19°C° 0 mm 2 m/s 689 mmHg 55%
    05:00 +20°C° 0 mm 2 m/s 690 mmHg 57%
    06:00 +22°C° 0 mm 1 m/s 690 mmHg 59%
    07:00 +23°C° 0 mm 2 m/s 690 mmHg 57%
    08:00 +24°C° 0 mm 2 m/s 690 mmHg 54%
    09:00 +26°C° 0 mm 2 m/s 691 mmHg 51%
    10:00 +27°C° 0 mm 2 m/s 691 mmHg 49%
    11:00 +28°C° 0 mm 3 m/s 691 mmHg 47%
    12:00 +28°C° 0 mm 3 m/s 691 mmHg 45%
    13:00 +29°C° 0 mm 3 m/s 690 mmHg 45%
    14:00 +29°C° 0 mm 3 m/s 690 mmHg 45%
    15:00 +29°C° 0 mm 3 m/s 690 mmHg 44%
    16:00 +28°C° 0 mm 3 m/s 690 mmHg 51%
    17:00 +26°C° 0 mm 2 m/s 690 mmHg 58%
    18:00 +25°C° 0 mm 2 m/s 690 mmHg 65%
    19:00 +24°C° 0 mm 2 m/s 690 mmHg 71%
    20:00 +22°C° 0 mm 1 m/s 690 mmHg 76%
    21:00 +20°C° 0 mm 1 m/s 690 mmHg 81%
    22:00 +20°C° 0 mm 1 m/s 690 mmHg 80%
    23:00 +20°C° 0 mm 1 m/s 691 mmHg 80%

    5 Junho, Sexta-feira

    Tempo Temperatura Precipitação Vento Pressão Humidade
    00:00 +18°C° 0 mm 2 m/s 691 mmHg 79%
    01:00 +18°C° 0 mm 2 m/s 691 mmHg 75%
    02:00 +18°C° 0 mm 2 m/s 691 mmHg 72%
    03:00 +17°C° 0 mm 2 m/s 691 mmHg 68%
    04:00 +19°C° 0 mm 1 m/s 691 mmHg 68%
    05:00 +20°C° 0 mm 1 m/s 692 mmHg 68%
    06:00 +20°C° 0 mm 1 m/s 692 mmHg 67%
    07:00 +22°C° 0 mm 1 m/s 692 mmHg 63%
    08:00 +24°C° 0 mm 1 m/s 693 mmHg 59%
    09:00 +26°C° 0 mm 2 m/s 693 mmHg 55%
    10:00 +27°C° 0.1 mm 2 m/s 693 mmHg 51%
    11:00 +28°C° 0.1 mm 3 m/s 693 mmHg 48%
    12:00 +29°C° 0.1 mm 3 m/s 693 mmHg 45%
    13:00 +29°C° 0.2 mm 3 m/s 693 mmHg 45%
    14:00 +29°C° 0.2 mm 3 m/s 693 mmHg 45%
    15:00 +29°C° 0.2 mm 3 m/s 693 mmHg 44%
    16:00 +28°C° 0.3 mm 3 m/s 693 mmHg 49%
    17:00 +27°C° 0.3 mm 3 m/s 693 mmHg 53%
    18:00 +26°C° 0.3 mm 2 m/s 693 mmHg 57%
    19:00 +24°C° 0.1 mm 2 m/s 693 mmHg 62%
    20:00 +21°C° 0.1 mm 2 m/s 693 mmHg 66%
    21:00 +19°C° 0.1 mm 2 m/s 694 mmHg 71%
    22:00 +20°C° 0.1 mm 1 m/s 694 mmHg 71%
    23:00 +19°C° 0.1 mm 1 m/s 694 mmHg 72%

    6 Junho, Sábado

    Tempo Temperatura Precipitação Vento Pressão Humidade
    00:00 +19°C° 0.1 mm 1 m/s 694 mmHg 73%
    01:00 +18°C° 0 mm 1 m/s 694 mmHg 74%
    02:00 +18°C° 0 mm 1 m/s 694 mmHg 76%
    03:00 +16°C° 0 mm 1 m/s 694 mmHg 78%
    04:00 +18°C° 0 mm 1 m/s 694 mmHg 77%
    05:00 +19°C° 0 mm 1 m/s 695 mmHg 75%
    06:00 +20°C° 0 mm 1 m/s 695 mmHg 74%
    07:00 +20°C° 0.1 mm 2 m/s 695 mmHg 69%
    08:00 +21°C° 0.1 mm 2 m/s 695 mmHg 64%
    09:00 +24°C° 0.1 mm 3 m/s 695 mmHg 59%
    10:00 +24°C° 0.1 mm 3 m/s 695 mmHg 57%
    11:00 +25°C° 0.1 mm 3 m/s 695 mmHg 55%
    12:00 +26°C° 0.1 mm 3 m/s 695 mmHg 53%
    13:00 +26°C° 0.2 mm 3 m/s 695 mmHg 53%
    14:00 +26°C° 0.2 mm 3 m/s 694 mmHg 53%
    15:00 +26°C° 0.2 mm 2 m/s 694 mmHg 53%
    16:00 +26°C° 0.3 mm 2 m/s 694 mmHg 56%
    17:00 +25°C° 0.3 mm 2 m/s 694 mmHg 60%
    18:00 +25°C° 0.3 mm 1 m/s 694 mmHg 63%
    19:00 +23°C° 0.2 mm 1 m/s 694 mmHg 67%
    20:00 +21°C° 0.2 mm 1 m/s 694 mmHg 70%
    21:00 +19°C° 0.2 mm 2 m/s 695 mmHg 74%
    22:00 +18°C° 0 mm 2 m/s 695 mmHg 75%
    23:00 +18°C° 0 mm 2 m/s 695 mmHg 75%
    Mostrar mais